Location: Banff
(51.1667°N, 115.5667°W)
Time: 02:36:03
(UTC+00:00)

Explorer 7 - Pass Details

Date: 04 December 2020
Orbit: 484 x 678 km, 50.3° (Epoch: 16 January)

Event Time Altitude Azimuth Distance (km) Brightness Sun altitude
Exits shadow 11:30:21 10° 110° (ESE) 1,811 10.0 -36.2°
Drops below altitude 10° 11:30:24 10° 110° (ESE) 1,828 10.1 -36.2°
Sets 11:32:34 0° 108° (ESE) 2,688 11.1 -35.9°
